Lid_Strength_Index
-1 -0 1 4 11 12 13 13 10 9 10 6 7 7 9 8 10 12 2 1 0 0 -0 -0 -1 -1 -1 -1 -1 -1 -1 -2 -2 -2 -2 -2 -1 -1 -2 -2 -2 -2 -2 -2 -2 -2 -2 -2 -1
0 0 3 6 13 17 15 11 12 9 7 6 6 7 8 10 5 4 3 1 0 -0 -0 -0 -1 -1 -1 -1 -1 -1 -1 -2 -2 -2 -2 -2 -2 -1 -2 -2 -2 -2 -2 -2 -2 -2 -2 -2 -1
1 1 7 10 13 16 14 11 9 7 6 7 7 6 7 8 5 4 2 0 -0 0 -0 -0 -1 -1 -1 -1 -1 -1 -2 -2 -2 -2 -2 -2 -2 -2 -2 -2 -2 -2 -2 -2 -2 -2 -2 -2 -2
2 4 6 12 14 12 12 11 8 8 7 5 6 8 6 3 4 2 1 0 1 0 0 -1 -1 -1 -1 -1 -1 -1 -1 -1 -2 -2 -2 -2 -2 -2 -2 -2 -2 -1 -1 -2 -2 -1 -1 -2 -2
3 6 12 14 13 11 10 9 8 7 7 7 6 8 8 4 2 1 1 0 1 0 -0 -0 -1 -1 -1 -1 -1 -1 -2 -1 -2 -2 -2 -2 -2 -2 -2 -2 -2 -1 -1 -1 -2 -2 -1 -1 -2
8 7 14 15 13 10 9 8 8 9 8 6 6 7 7 2 2 1 1 1 0 0 -0 -0 -1 -1 -1 -1 -1 -1 -1 -1 -2 -2 -2 -2 -2 -2 -2 -2 -2 -1 -1 -1 -1 -1 -1 -1 -2
10 11 13 13 13 11 9 7 9 9 8 7 5 9 6 4 2 1 1 0 0 0 0 0 -0 -0 -1 -1 -1 -1 -1 -1 -2 -2 -2 -2 -2 -2 -2 -1 -2 -1 -1 -1 -1 -1 -1 -1 -1
7 9 12 13 13 12 8 7 7 8 7 5 5 9 9 4 2 1 1 1 0 0 0 0 -0 -0 0 0 -1 -1 -1 -1 -1 -1 -1 -1 -1 -1 -2 -2 -2 -1 -1 -1 -1 -1 -1 -1 -1
5 12 14 13 12 11 7 8 6 5 7 7 6 6 4 2 2 2 3 2 1 1 0 0 -0 0 0 0 -0 -1 -1 -0 -1 -1 -1 -0 0 0 -0 -0 -1 -2 -1 -1 -1 -1 -1 -2 -2
9 12 11 9 9 9 8 8 7 8 9 8 7 5 3 3 3 4 4 4 3 2 1 0 -0 0 0 -0 1 1 0 0 -0 -0 0 0 0 0 0 0 -1 -2 -2 -2 -1 -1 -2 -1 2
9 12 8 8 7 7 8 8 7 8 10 8 8 6 5 4 4 4 4 3 3 2 1 0 0 0 1 0 1 2 1 1 1 1 0 1 0 1 0 1 1 1 0 1 -0 1 1 2 3
11 8 8 7 7 7 8 7 8 8 8 5 5 4 4 5 4 4 4 3 2 2 1 1 1 0 1 1 0 2 2 2 2 2 1 1 2 2 2 2 1 1 1 1 1 1 1 2 3
10 9 7 7 7 7 7 8 8 8 6 5 5 5 5 5 4 3 3 2 2 2 1 1 0 0 1 1 1 0 2 2 2 2 2 2 3 2 2 2 2 1 1 1 2 2 2 2 2
8 8 8 7 8 7 8 9 8 7 7 6 6 6 5 5 4 4 3 3 2 2 2 1 0 0 0 1 1 1 1 1 1 2 2 2 2 1 2 2 1 2 2 2 2 2 2 2 3
8 11 9 8 8 9 7 10 10 7 6 7 7 6 5 5 4 4 3 3 2 2 1 1 1 0 0 1 1 1 1 1 1 1 2 2 2 3 2 3 2 1 2 2 2 3 2 2 2
11 10 14 9 9 8 8 13 9 6 7 7 7 6 6 5 4 3 3 2 2 2 2 1 0 0 0 0 0 0 1 1 1 1 1 2 3 3 3 3 3 3 3 3 2 3 2 2 2
12 16 14 12 8 9 10 13 9 6 7 8 8 8 7 6 5 3 3 2 2 2 1 1 1 1 0 0 -0 1 1 1 1 1 1 2 2 2 2 2 2 2 3 3 3 3 3 3 3
15 16 13 14 11 10 12 12 9 8 8 8 9 8 8 7 7 5 3 2 2 2 2 1 1 1 0 0 0 1 1 1 1 1 1 1 1 2 2 2 2 2 2 2 2 3 2 2 1
12 14 14 12 10 11 12 11 10 8 8 8 9 9 8 8 6 5 6 2 2 3 2 1 1 1 1 1 2 2 2 2 2 2 1 0 1 1 2 2 2 2 2 2 2 1 2 2 1
12 14 14 12 10 11 12 12 10 9 9 8 9 9 9 8 8 7 6 5 3 3 2 2 2 1 1 1 1 1 2 2 2 2 1 1 1 1 2 2 2 2 2 2 1 1 2 2 2
13 14 14 14 11 10 12 14 12 9 8 7 8 8 8 8 7 7 7 6 5 3 3 2 1 1 1 2 2 2 2 2 3 2 2 1 1 1 1 1 2 2 1 1 1 1 1 3 3
15 11 12 13 14 18 12 19 14 11 10 9 8 9 8 7 7 7 6 6 6 5 2 2 2 2 2 2 2 2 2 3 2 2 2 2 1 1 1 1 1 1 1 1 2 2 2 3 4
13 10 12 12 14 15 15 17 14 11 12 10 9 9 8 8 7 7 7 6 5 5 3 2 2 2 2 2 2 3 3 3 2 2 2 2 3 3 3 3 3 3 3 3 3 3 3 4 5
9 11 12 12 14 19 16 16 16 13 11 10 9 9 9 8 8 7 6 6 6 7 5 4 4 3 2 2 2 2 2 3 3 3 3 3 4 4 3 3 4 3 4 4 4 5 5 5 5
11 14 19 20 20 20 14 17 14 13 12 11 10 9 9 9 8 8 8 7 7 7 6 6 6 4 4 3 3 2 2 2 3 3 3 4 5 4 4 4 4 5 5 4 5 5 6 6 5
13 13 18 22 22 19 14 18 15 13 12 11 10 11 12 11 10 9 9 7 7 7 6 7 6 6 5 4 4 3 3 3 3 3 3 4 4 4 4 4 5 6 5 6 6 6 7 7 7
14 15 13 17 17 18 17 15 13 11 11 11 12 11 11 11 10 10 10 10 9 8 7 7 6 6 6 6 5 5 5 5 5 5 5 5 5 5 5 5 6 6 6 7 7 7 7 7 7
11 11 16 17 21 21 18 18 16 14 12 12 11 11 11 10 10 9 9 8 8 8 7 7 6 6 6 6 6 6 5 4 6 6 7 7 6 5 6 6 7 7 7 8 8 8 8 7 7
13 13 13 14 16 20 20 18 14 13 11 11 11 11 10 10 10 9 9 9 9 8 8 7 6 6 6 6 6 6 6 5 5 6 7 7 7 7 6 7 7 8 8 9 9 9 9 8 8
12 14 14 18 19 19 19 18 12 12 11 11 11 10 9 9 10 9 9 8 8 8 8 7 6 6 6 6 6 6 5 5 5 6 6 6 6 7 7 8 8 9 9 9 9 9 9 8 8